Date String (YYYY-MM-DD hh:mm:ss) UTC,Instrument flags,absolute air pressure of the measurement (hPa),sample flow rate (lpm),inlet stack bypass flow (lpm),air temperature of the measurement (°C),ambient temperature measured by the external sensor (°C),aerosol sample conditioner tube jacket temperature (°C),OPC LED temperature (°C),internal box temperature (°C),relative humidity of the measurement (%),span deviation,mass concentration of particles derived from Lorenz-Mie calculation of OPC scattering (μg/m³),mass concentration of particles derived from Lorenz-Mie calculation of OPC scattering (μg/m³),mass concentration of particles derived from Lorenz-Mie calculation of OPC scattering (μg/m³)
DateTimeUTC,F1_M11,P_M11,Q1_M11,Q2_M11,T1_M11,T2_M11,T3_M11,T4_M11,T5_M11,U1_M11,ZSPAN_M11,X2_M11,X0_M11,X1_M11
2023-07-31 20:00:00,SystemResetWarning,0835.1,4.97,000.00,030.9,026.4,000.0,038.8,031.2,33.1,-000.2,0008.49,0018.96,0006.76
2023-07-31 20:01:00,SystemResetWarning,0834.9,5.02,000.00,030.9,025.5,000.0,038.7,031.1,33.3,-000.7,0008.55,0018.97,0006.77
2023-07-31 20:02:00,SystemResetWarning,0834.7,5.00,000.00,030.8,025.5,000.0,038.6,030.9,34.1,0000.0,0008.61,0018.20,0006.76
2023-07-31 20:03:00,SystemResetWarning,0835.0,4.99,000.00,030.7,025.8,000.0,038.7,030.8,35.0,0000.0,0008.57,0017.68,0006.76
2023-07-31 20:04:00,SystemResetWarning,0835.0,5.01,000.00,030.8,026.3,000.0,038.7,031.0,34.8,0000.0,0008.55,0017.40,0006.76
2023-07-31 20:05:00,SystemResetWarning,0834.8,4.98,000.00,030.8,026.7,000.0,038.7,031.1,34.6,0000.0,0008.47,0016.36,0006.74
2023-07-31 20:06:00,SystemResetWarning,0834.9,5.01,000.00,030.9,027.1,000.0,038.8,031.2,34.6,0000.0,0008.40,0016.15,0006.73
2023-07-31 20:07:00,SystemResetWarning,0834.8,5.00,000.00,030.9,027.3,000.0,038.8,031.3,35.0,0000.0,0008.38,0015.90,0006.73
2023-07-31 20:08:00,SystemResetWarning,0835.1,5.00,000.00,031.1,026.2,000.0,038.7,031.2,34.1,0000.0,0008.37,0015.15,0006.72
2023-07-31 20:09:00,SystemResetWarning,0834.7,4.98,000.00,031.1,025.4,000.0,038.6,031.0,33.4,0000.0,0008.31,0015.30,0006.66
2023-07-31 20:10:00,SystemResetWarning,0834.8,5.01,000.00,031.0,025.3,000.0,038.5,030.9,33.6,0000.0,0008.26,0015.78,0006.63
2023-07-31 20:11:00,SystemResetWarning,0834.9,5.01,000.00,030.9,025.7,000.0,038.6,030.8,34.5,0000.0,0008.22,0015.97,0006.61
2023-07-31 20:12:00,SystemResetWarning,0834.6,4.99,000.00,030.9,026.1,000.0,038.7,030.9,35.5,0000.0,0008.16,0016.99,0006.59
2023-07-31 20:13:00,SystemResetWarning,0834.7,5.03,000.00,031.1,026.6,000.0,038.7,031.1,35.0,0000.0,0008.02,0017.17,0006.57
2023-07-31 20:14:00,SystemResetWarning,0835.1,4.97,000.00,031.3,027.0,000.0,038.8,031.3,34.6,0000.0,0007.91,0016.83,0006.54
2023-07-31 20:15:00,SystemResetWarning,0835.0,5.00,000.00,031.5,027.4,000.0,038.8,031.4,35.1,0000.0,0007.84,0016.73,0006.51
2023-07-31 20:16:00,SystemResetWarning,0834.7,5.03,000.00,031.7,027.0,000.0,038.8,031.4,35.1,0000.0,0007.84,0017.42,0006.50
2023-07-31 20:17:00,SystemResetWarning,0834.9,4.97,000.00,031.9,025.8,000.0,038.8,031.3,34.8,0000.0,0007.86,0018.01,0006.47
2023-07-31 20:18:00,SystemResetWarning,0834.7,5.01,000.00,032.0,025.3,000.0,038.7,031.2,34.1,0000.0,0007.85,0018.18,0006.44
2023-07-31 20:19:00,SystemResetWarning,0834.7,5.01,000.00,032.0,025.5,000.0,038.8,031.1,33.5,0000.0,0007.81,0018.12,0006.41
2023-07-31 20:20:00,SystemResetWarning,0834.7,4.98,000.00,031.9,025.9,000.0,038.9,031.0,32.8,0000.0,0007.84,0018.28,0006.41
2023-07-31 20:21:00,SystemResetWarning,0834.9,5.01,000.00,031.9,026.3,000.0,039.1,031.1,32.2,0000.0,0007.83,0017.95,0006.43
2023-07-31 20:22:00,SystemResetWarning,0835.0,5.01,000.00,031.9,026.8,000.0,039.2,031.2,32.2,0000.0,0007.82,0018.29,0006.44
2023-07-31 20:23:00,SystemResetWarning,0835.2,5.00,000.00,031.9,027.2,000.0,039.3,031.3,32.7,0000.0,0007.84,0016.88,0006.44
2023-07-31 20:24:00,SystemResetWarning,0835.2,5.00,000.00,031.9,027.4,000.0,039.3,031.4,32.3,0000.0,0007.84,0016.55,0006.45
2023-07-31 20:25:00,SystemResetWarning,0835.2,4.98,000.00,031.9,026.4,000.0,039.2,031.3,32.9,0000.0,0007.91,0017.41,0006.48
2023-07-31 20:26:00,SystemResetWarning,0835.1,5.00,000.00,031.8,025.4,000.0,039.2,031.1,33.0,0000.0,0007.98,0018.20,0006.51
2023-07-31 20:27:00,SystemResetWarning,0834.9,5.01,000.00,031.7,025.3,000.0,039.1,031.0,33.6,0000.0,0007.98,0017.66,0006.51
2023-07-31 20:28:00,SystemResetWarning,0834.9,5.00,000.00,031.5,025.7,000.0,039.2,030.9,34.2,0000.0,0007.98,0017.40,0006.52
2023-07-31 20:29:00,SystemResetWarning,0835.1,4.98,000.00,031.4,026.1,000.0,039.2,031.0,34.2,-000.0,0008.02,0017.47,0006.55
2023-07-31 20:30:00,SystemResetWarning,0835.0,5.00,000.00,031.4,026.6,000.0,039.2,031.1,34.7,-000.1,0008.09,0017.86,0006.59
2023-07-31 20:31:00,SystemResetWarning,0834.8,5.04,000.00,031.4,027.0,000.0,039.2,031.2,34.3,-000.8,0008.09,0017.38,0006.62
2023-07-31 20:32:00,SystemResetWarning,0835.3,4.96,000.00,031.4,027.4,000.0,039.3,031.3,33.4,-000.4,0008.10,0017.83,0006.65
2023-07-31 20:33:00,SystemResetWarning,0835.0,5.01,000.00,031.5,027.0,000.0,039.2,031.4,33.2,-000.0,0008.19,0018.32,0006.67
2023-07-31 20:34:00,SystemResetWarning,0835.0,5.00,000.00,031.4,025.7,000.0,039.0,031.2,33.2,0000.1,0008.25,0019.11,0006.69
2023-07-31 20:35:00,SystemResetWarning,0834.7,5.01,000.00,031.3,025.2,000.0,038.9,031.0,33.6,0000.3,0008.29,0020.11,0006.70
2023-07-31 20:36:00,SystemResetWarning,0834.8,5.01,000.00,031.2,025.4,000.0,038.9,030.8,34.3,0000.6,0008.32,0019.46,0006.71
2023-07-31 20:37:00,SystemResetWarning,0835.1,5.01,000.00,031.1,025.8,000.0,039.0,030.9,34.1,0001.4,0008.34,0018.77,0006.72
2023-07-31 20:38:00,SystemResetWarning,0835.0,4.97,000.00,031.0,026.3,000.0,039.0,031.0,34.8,0002.3,0008.33,0018.89,0006.72
2023-07-31 20:39:00,SystemResetWarning,0834.8,5.02,000.00,031.0,026.7,000.0,039.0,031.1,34.9,0001.8,0008.34,0018.98,0006.72
2023-07-31 20:40:00,SystemResetWarning,0834.8,4.96,000.00,031.1,027.1,000.0,039.0,031.2,35.4,0000.0,0008.31,0018.79,0006.71
2023-07-31 20:41:00,SystemResetWarning,0834.9,5.03,000.00,031.3,027.4,000.0,039.0,031.4,34.9,0000.0,0008.30,0019.71,0006.70
2023-07-31 20:42:00,SystemResetWarning,0835.0,4.97,000.00,031.5,026.5,000.0,038.9,031.4,33.9,0000.0,0008.29,0019.73,0006.68
2023-07-31 20:43:00,SystemResetWarning,0835.0,5.02,000.00,031.6,025.5,000.0,038.8,031.2,34.3,0000.1,0008.39,0019.64,0006.68
2023-07-31 20:44:00,SystemResetWarning,0835.0,5.01,000.00,031.6,025.4,000.0,038.8,031.1,33.7,0000.2,0008.44,0018.38,0006.66
2023-07-31 20:45:00,SystemResetWarning,0835.2,4.99,000.00,031.4,025.7,000.0,038.9,030.9,33.1,0000.0,0008.43,0017.98,0006.66
2023-07-31 20:46:00,SystemResetWarning,0834.8,5.00,000.00,031.4,026.2,000.0,039.0,031.0,33.4,0000.0,0008.43,0017.66,0006.66
2023-07-31 20:47:00,SystemResetWarning,0834.7,5.01,000.00,031.3,026.6,000.0,039.0,031.1,33.2,0000.0,0008.41,0017.27,0006.67
2023-07-31 20:48:00,SystemResetWarning,0834.7,5.00,000.00,031.3,027.0,000.0,039.0,031.2,32.9,0000.0,0008.34,0016.96,0006.66
2023-07-31 20:49:00,SystemResetWarning,0834.8,5.00,000.00,031.3,027.4,000.0,039.1,031.3,33.4,0000.0,0008.35,0017.45,0006.66
2023-07-31 20:50:00,SystemResetWarning,0834.8,4.99,000.00,031.3,027.2,000.0,039.0,031.3,34.1,0000.0,0008.34,0017.03,0006.67
2023-07-31 20:51:00,SystemResetWarning,0834.9,4.99,000.00,031.3,026.0,000.0,038.9,031.1,34.8,0000.0,0008.38,0017.97,0006.69
2023-07-31 20:52:00,SystemResetWarning,0834.9,5.03,000.00,031.3,025.4,000.0,038.8,031.1,35.3,0000.0,0008.37,0017.19,0006.69
2023-07-31 20:53:00,SystemResetWarning,0835.0,4.97,000.00,031.4,025.6,000.0,038.8,031.0,35.3,0000.0,0008.37,0016.66,0006.68
2023-07-31 20:54:00,SystemResetWarning,0834.9,5.03,000.00,031.5,026.0,000.0,038.9,031.1,34.9,0000.0,0008.40,0016.58,0006.65
2023-07-31 20:55:00,SystemResetWarning,0834.7,4.96,000.00,031.7,026.4,000.0,039.0,031.3,34.4,0000.0,0008.27,0016.31,0006.63
2023-07-31 20:56:00,SystemResetWarning,0834.9,5.01,000.00,031.8,026.8,000.0,039.0,031.4,34.2,0000.0,0008.11,0016.19,0006.61
2023-07-31 20:57:00,SystemResetWarning,0835.2,5.01,000.00,031.9,027.2,000.0,039.1,031.5,32.9,0000.0,0008.11,0015.63,0006.59
2023-07-31 20:58:00,SystemResetWarning,0835.0,4.99,000.00,031.9,027.1,000.0,039.1,031.5,31.9,0000.0,0008.10,0015.23,0006.57
2023-07-31 20:59:00,SystemResetWarning,0835.2,4.99,000.00,031.9,025.9,000.0,039.1,031.2,31.8,0000.0,0008.11,0015.64,0006.55
